Regional Weather Roundup
Issued by NWS Boston, MA

Home | Current Version | Previous Version | Text Only | Print | Product List | Glossary On
Versions: 1 2 3 4 5 6 7 8 9 10 11 12 13 14 15 16 17 18 19 20 21 22 23 24 25 26 27
000
ASUS41 KBOX 290510
RWRBOX

REGIONAL WEATHER ROUNDUP
NATIONAL WEATHER SERVICE TAUNTON MA
100 AM EDT MON AUG 29 2016

NOTE:  "FAIR" INDICATES FEW OR NO CLOUDS BELOW 12,000 FEET WITH NO
SIGNIFICANT WEATHER AND/OR OBSTRUCTIONS TO VISIBILITY.

MAZALL-290600-
EASTERN MASSACHUSETTS

CITY           SKY/WX    TMP DP  RH WIND       PRES   REMARKS
BOSTON         CLEAR     70  64  81 SW14      30.13F
BEVERLY        CLEAR     70  62  76 SW9       30.11F
LAWRENCE       CLEAR     72  59  63 SW8       30.13F
BEDFORD        CLEAR     70  55  59 SW12      30.11F
BLUE HILL        N/A     66  62  87 S17G23    30.14F
NORWOOD        CLEAR     69  62  78 S8        30.13F
MARSHFIELD     CLEAR     68  63  83 SW8       30.14S
PLYMOUTH       CLEAR     67  62  84 SW7       30.16S
TAUNTON        CLEAR     66  63  90 CALM      30.15F
NEW BEDFORD    CLEAR     66  63  90 S5        30.15F
$$

MAZALL-290600-
CAPE COD AND THE ISLANDS

CITY           SKY/WX    TMP DP  RH WIND       PRES   REMARKS
FALMOUTH         N/A     66  64  94 S7        30.17S
HYANNIS        PTCLDY    70  66  87 S9        30.14F
CHATHAM        CLEAR     66  65  96 S6        30.17F
PROVINCETOWN   CLEAR     68  66  93 S13       30.15S
NANTUCKET      CLEAR     68  66  93 S12       30.16F
MARTHAS VNYRD  CLEAR     65  64  97 SW5       30.16F
$$

MAZALL-290600-
CENTRAL AND WESTERN MASSACHUSETTS

CITY           SKY/WX    TMP DP  RH WIND       PRES   REMARKS
WORCESTER      PTCLDY    66  60  81 SW15      30.16F
FITCHBURG      PTCLDY    72  59  63 SE5       30.13F
ORANGE         PTCLDY    71  61  70 S8        30.14F
SPRINGFIELD    PTCLDY    69  62  78 S8        30.13F
WESTFIELD      MOCLDY    71  63  75 S8        30.13F
NORTH ADAMS    CLOUDY    72  65  78 CALM      30.11F
PITTSFIELD     MOCLDY    71  61  70 SW8       30.14F
$$

RIZALL-290600-
RHODE ISLAND

CITY           SKY/WX    TMP DP  RH WIND       PRES   REMARKS
PROVIDENCE     CLEAR     68  62  81 SW8       30.16F
NEWPORT        CLEAR     69  65  86 S6        30.16F
BLOCK ISLAND   CLEAR     70  66  87 SW6       30.18S
SMITHFIELD     CLEAR     66  61  84 SW3       30.17
WESTERLY       PTCLDY    66  61  84 CALM      30.18S
$$

CTZALL-290600-
CONNECTICUT

CITY           SKY/WX    TMP DP  RH WIND       PRES   REMARKS
BRADLEY INTL   PTCLDY    70  63  78 S9        30.15F
HARTFORD       CLEAR     72  66  81 S9        30.15F
BRIDGEPORT     PTCLDY    76  67  73 SW10      30.16F
DANBURY        PTCLDY    70  65  84 S5        30.18F
GROTON         MOCLDY    70  65  84 CALM      30.16F
NEW HAVEN      MOCLDY    74  66  76 SW9       30.17F
CHESTER        MOCLDY    70  66  88 S6        30.18F
MERIDEN        PTCLDY    70  64  81 CALM      30.16F
WILLIMANTIC    CLEAR     67  65  93 CALM      30.17F
OXFORD           N/A     66  61  82 SW5       30.20F
$$

MEZ002-015-021-024-NHZ003-005-008-011-012-014-VTZ005-008-290600-
NORTHERN NEW ENGLAND

CITY           SKY/WX    TMP DP  RH WIND       PRES   REMARKS
PORTLAND ME    CLEAR     68  63  84 S12       30.08F
BANGOR ME      CLOUDY    65  64  97 S9        30.06F
CONCORD NH     CLEAR     70  60  70 S6        30.09F
MANCHESTER NH  PTCLDY    72  58  61 S9        30.08F
NASHUA NH      CLEAR     71  61  70 CALM      30.11F
PORTSMOUTH NH  PTCLDY    70  58  64 SW9       30.08F
JAFFREY NH     CLEAR     69  59  70 SW7       30.14F
KEENE NH       PTCLDY    70  62  76 S8        30.11F
BURLINGTON VT  CLOUDY    77  64  64 S6        30.03S
MT. WASHINGTON FOG       55  55 100 W30G53      N/A  VSB 0
$$

NYZ052-076-290600-
EASTERN NEW YORK

CITY           SKY/WX    TMP DP  RH WIND       PRES   REMARKS
ALBANY         MOCLDY    76  64  66 S8        30.09F
NEW YORK CITY  CLOUDY    77  66  68 S10       30.16F
$$

ANZALL-290600-
MARINE OBSERVATIONS

STATION/POSITION TIME  TEMP    WIND        PRES    VSBY  WAVE
                       AIR SEA DIR/SP/G                  HT/PER
                 (UTC) (F)     (DEG/KT/KT) (MB)    (MI)  (FT/S)
BOSTON BUOY      0450   68 69  180/ 10/ 12 1020.2          2/15
BUZZARDS BAY     0400   70     170/ 12/ 13 1021.9F
NANTUCKET SOUND  0450   71 74  200/ 12/ 14 1020.9F         1/15
MASS BAY-STELLWA 0404   69 68  210/ 14/ 16 1020.0S  1 7/8  4/ 4
ISLE OF SHOALS   0500   68     190/ 19/ 20 1018.7F
S OF BLOCK IS    0425      76                N/A           3/14
$$

......................KEY.........................
  SKY/WX - SKY CONDITION/PRESENT WEATHER
  TMP    - TEMPERATURE IN FAHRENHEIT
  DWPT   - DEWPOINT IN FAHRENHEIT
  RH     - RELATIVE HUMIDITY IN PERCENT
  WIND   - DIRECTION AND SPEED IN MPH
  PRES   - MEAN SEA LEVEL PRESSURE IN INCHES OF HG
  WCI    - WIND CHILL INDEX
  VSB    - VISIBILITY IN MILES
  HX     - HEAT INDEX
  TC     - TEMPERATURE IN CELSIUS
  VRB    - VARIABLE WIND DIRECTION
  N/A    - NOT AVAILABLE




USA.gov is the U.S. government's official web portal to all federal, state and local government web resources and services.